Showing default

BRO-14, 60551

Orbit data source: Space-Track

BRO-14, 60551 is a payload satellite owned by Unseen Labs (FR) in SSO that was launched on Fri, 16 Aug 2024 UTC via an FALCON 9 launch vehicle from the Air Force Western Test Range (AFWTR). Payload-class satellites include a variety of spacecraft equipped with specific instruments for various scientific and technological missions. These include communications satellites like Starlink; space stations such as the ISS; scientific satellites like the Hubble; Earth observation satellites from companies like Planet Labs, Umbra, and HawkEye 360; GPS; miniature CubeSats for education and research; and military/defense satellites.

Loading next visibility...
Identifier
60551, 2024-149CM
Orbit
SSO
Country
Flag of FRFR
Related business
Manufacturer
GOMSpace
Mission
Operational Commercial Sigint
Bus & Motor
CUBESAT 8U, Unknown motor
Mass
15 kg wet, ~15 kg dry
Launch date (UTC)
2024-08-16 (2 years ago)
Launch vehicle
FALCON 9
Launch site
Air Force Western Test Range (AFWTR)
Object type
Payload
Rocket body
Debris
Shape & HBR
Box, 0.2 m
Radar Cross Section
0.100 m², Medium (>0.1 m² and < 1m²)

Expand to show TLE details & history
Last TLE update: 9 hours ago

TLE from 9 hours ago
0 BRO-14
1 60551U 24149CM  26237.67889375  .00001105  00000-0  10279-3 0  9999
2 60551  97.6828 312.1981 0005833 213.0622 147.0236 14.96302564110385
Epoch: 2026-08-25T16:17Z
TLE epoch observation values (Epoch: 2026-08-25T16:17:36.420Z)
Latitude
0.00005°
Longitude
93.85355°
Altitude
584.788 km
Speed
7.566 km/s
True Right ascension
20h 48m 47s
True Declination
0° 00' 00"
Sunlit
Object was in full shadow at epoch
Visualization orbit readout
Latitude
Unknown
Longitude
Unknown
Altitude
Unknown
Speed
Unknown
Apparent Right ascension
Unknown
Apparent Declination
Unknown
Sunlit
N/A
Visualization observer readout
Local Sidereal Time
17:00:16
Azimuth
Unknown
Elevation
Unknown
Doppler factor
Unknown
Orbital elements
Apogee altitude
579.398 km
Perigee altitude
571.286 km
Semi-major axis
6,953.479 km
Eccentricity
0.00058
Inclination
97.6828°
RAAN
312.1981°
Arg. of periapsis
213.0622°
True anomaly
147.05996°
Mean anomaly
147.0236°
Eccentric anomaly
147.04178°
Mean motion
3.74317 °/min
Orbital period
96.18 mins
BSTAR
0.00010279
Loading maneuver chart data...
Computing Atmospheric mass density...

Documentation

Showing up to 5 results
|